• en Belgique
  • Liste des pays
  • À 7 jours
  • Température de l'eau
  • Carte satellitaire
  • Carte météo
  • Widgets météo
  • user-avatar
    Se connecter

    Météo par heure à Newcastle

    Ce jour, 22 Août, Mardi

    Heure Température Précipitation Vent Pression Humidité
    00:00 +10°C° 0 mm 2 m/s 762 mmHg 67%
    01:00 +10°C° 0 mm 2 m/s 762 mmHg 67%
    02:00 +10°C° 0 mm 2 m/s 762 mmHg 67%
    03:00 +10°C° 0 mm 2 m/s 762 mmHg 67%
    04:00 +11°C° 0 mm 1 m/s 762 mmHg 61%
    05:00 +10°C° 0 mm 1 m/s 762 mmHg 64%
    06:00 +10°C° 0 mm 1 m/s 762 mmHg 67%
    07:00 +9°C° 0 mm 1 m/s 763 mmHg 69%
    08:00 +13°C° 0 mm 1 m/s 763 mmHg 60%
    09:00 +16°C° 0 mm 1 m/s 763 mmHg 51%
    10:00 +20°C° 0 mm 1 m/s 763 mmHg 42%
    11:00 +20°C° 0 mm 2 m/s 763 mmHg 40%
    12:00 +21°C° 0 mm 2 m/s 762 mmHg 38%
    13:00 +21°C° 0 mm 2 m/s 762 mmHg 35%
    14:00 +21°C° 0 mm 2 m/s 762 mmHg 40%
    15:00 +20°C° 0 mm 3 m/s 762 mmHg 44%
    16:00 +19°C° 0 mm 3 m/s 762 mmHg 48%
    17:00 +17°C° 0 mm 3 m/s 763 mmHg 59%
    18:00 +15°C° 0 mm 2 m/s 763 mmHg 69%
    19:00 +13°C° 0 mm 2 m/s 764 mmHg 80%
    20:00 +12°C° 0 mm 2 m/s 764 mmHg 82%
    21:00 +12°C° 0 mm 2 m/s 765 mmHg 84%
    22:00 +11°C° 0 mm 1 m/s 765 mmHg 87%
    23:00 +11°C° 0 mm 1 m/s 765 mmHg 88%

    Demain, 23 Août, Mercredi

    Heure Température Précipitation Vent Pression Humidité
    00:00 +10°C° 0 mm 1 m/s 765 mmHg 90%
    01:00 +10°C° 0 mm 1 m/s 765 mmHg 92%
    02:00 +10°C° 0 mm 1 m/s 765 mmHg 92%
    03:00 +9°C° 0 mm 1 m/s 764 mmHg 92%
    04:00 +9°C° 0 mm 1 m/s 764 mmHg 93%
    05:00 +9°C° 0 mm 1 m/s 764 mmHg 92%
    06:00 +8°C° 0 mm 2 m/s 764 mmHg 90%
    07:00 +8°C° 0 mm 2 m/s 765 mmHg 89%
    08:00 +13°C° 0 mm 2 m/s 764 mmHg 77%
    09:00 +16°C° 0 mm 2 m/s 764 mmHg 64%
    10:00 +19°C° 0 mm 2 m/s 764 mmHg 52%
    11:00 +21°C° 0 mm 2 m/s 763 mmHg 47%
    12:00 +23°C° 0 mm 2 m/s 762 mmHg 42%
    13:00 +25°C° 0 mm 3 m/s 762 mmHg 37%
    14:00 +24°C° 0 mm 3 m/s 761 mmHg 39%
    15:00 +23°C° 0 mm 4 m/s 761 mmHg 41%
    16:00 +23°C° 0 mm 4 m/s 761 mmHg 43%
    17:00 +20°C° 0 mm 4 m/s 761 mmHg 53%
    18:00 +17°C° 0 mm 5 m/s 761 mmHg 63%
    19:00 +15°C° 0 mm 5 m/s 762 mmHg 73%
    20:00 +14°C° 0,1 mm 5 m/s 762 mmHg 76%
    21:00 +14°C° 0,1 mm 5 m/s 762 mmHg 80%
    22:00 +13°C° 0,1 mm 4 m/s 762 mmHg 84%
    23:00 +12°C° 0,2 mm 4 m/s 762 mmHg 82%

    Après-demain, 24 Août, Jeudi

    Heure Température Précipitation Vent Pression Humidité
    00:00 +12°C° 0,2 mm 4 m/s 761 mmHg 80%
    01:00 +11°C° 0,2 mm 4 m/s 761 mmHg 78%
    02:00 +10°C° 0 mm 4 m/s 761 mmHg 78%
    03:00 +10°C° 0 mm 4 m/s 761 mmHg 78%
    04:00 +8°C° 0 mm 5 m/s 761 mmHg 78%
    05:00 +8°C° 0 mm 4 m/s 761 mmHg 77%
    06:00 +8°C° 0 mm 4 m/s 761 mmHg 77%
    07:00 +7°C° 0 mm 4 m/s 762 mmHg 77%
    08:00 +11°C° 0 mm 4 m/s 762 mmHg 67%
    09:00 +14°C° 0 mm 4 m/s 762 mmHg 57%
    10:00 +16°C° 0 mm 5 m/s 762 mmHg 47%
    11:00 +17°C° 0,1 mm 5 m/s 761 mmHg 46%
    12:00 +19°C° 0,1 mm 6 m/s 761 mmHg 45%
    13:00 +20°C° 0,1 mm 6 m/s 760 mmHg 44%
    14:00 +19°C° 0,2 mm 6 m/s 760 mmHg 52%
    15:00 +17°C° 0,2 mm 6 m/s 760 mmHg 61%
    16:00 +15°C° 0,2 mm 7 m/s 760 mmHg 69%
    17:00 +14°C° 0,2 mm 6 m/s 761 mmHg 74%
    18:00 +13°C° 0,2 mm 6 m/s 762 mmHg 78%
    19:00 +11°C° 0,2 mm 6 m/s 763 mmHg 83%
    20:00 +10°C° 0,5 mm 6 m/s 763 mmHg 85%
    21:00 +10°C° 0,5 mm 6 m/s 763 mmHg 88%
    22:00 +10°C° 0,5 mm 6 m/s 764 mmHg 90%
    23:00 +10°C° 0,5 mm 6 m/s 764 mmHg 90%

    25 Août, Vendredi

    Heure Température Précipitation Vent Pression Humidité
    00:00 +9°C° 0,5 mm 6 m/s 764 mmHg 90%
    01:00 +9°C° 0,5 mm 6 m/s 763 mmHg 90%
    02:00 +9°C° 0,5 mm 6 m/s 763 mmHg 89%
    03:00 +8°C° 0,5 mm 7 m/s 764 mmHg 88%
    04:00 +8°C° 0,5 mm 7 m/s 764 mmHg 87%
    05:00 +8°C° 0,6 mm 7 m/s 764 mmHg 86%
    06:00 +8°C° 0,6 mm 7 m/s 765 mmHg 85%
    07:00 +6°C° 0,6 mm 7 m/s 765 mmHg 84%
    08:00 +9°C° 0,5 mm 7 m/s 765 mmHg 78%
    09:00 +11°C° 0,5 mm 7 m/s 765 mmHg 72%
    10:00 +12°C° 0,5 mm 7 m/s 766 mmHg 67%
    11:00 +14°C° 0,4 mm 7 m/s 765 mmHg 66%
    12:00 +14°C° 0,4 mm 7 m/s 765 mmHg 65%
    13:00 +15°C° 0,4 mm 7 m/s 765 mmHg 64%
    14:00 +15°C° 0,3 mm 7 m/s 765 mmHg 64%
    15:00 +15°C° 0,3 mm 7 m/s 765 mmHg 64%
    16:00 +15°C° 0,3 mm 6 m/s 765 mmHg 64%
    17:00 +13°C° 0,1 mm 6 m/s 765 mmHg 70%
    18:00 +12°C° 0,1 mm 5 m/s 766 mmHg 76%
    19:00 +10°C° 0,1 mm 4 m/s 766 mmHg 82%
    20:00 +10°C° 0,1 mm 4 m/s 767 mmHg 84%
    21:00 +8°C° 0,1 mm 4 m/s 767 mmHg 86%
    22:00 +8°C° 0,1 mm 4 m/s 768 mmHg 88%
    23:00 +8°C° 0,1 mm 4 m/s 768 mmHg 89%

    26 Août, Samedi

    Heure Température Précipitation Vent Pression Humidité
    00:00 +7°C° 0,1 mm 4 m/s 767 mmHg 91%
    01:00 +7°C° 0,1 mm 4 m/s 767 mmHg 92%
    02:00 +7°C° 0,1 mm 4 m/s 767 mmHg 93%
    03:00 +6°C° 0,1 mm 4 m/s 767 mmHg 93%
    04:00 +6°C° 0,1 mm 4 m/s 767 mmHg 94%
    05:00 +6°C° 0 mm 4 m/s 767 mmHg 93%
    06:00 +6°C° 0 mm 4 m/s 768 mmHg 91%
    07:00 +6°C° 0 mm 4 m/s 768 mmHg 90%
    08:00 +10°C° 0 mm 4 m/s 768 mmHg 77%
    09:00 +13°C° 0 mm 4 m/s 768 mmHg 65%
    10:00 +17°C° 0 mm 4 m/s 768 mmHg 53%
    11:00 +18°C° 0 mm 4 m/s 767 mmHg 48%
    12:00 +19°C° 0 mm 4 m/s 767 mmHg 44%
    13:00 +20°C° 0 mm 4 m/s 766 mmHg 40%
    14:00 +20°C° 0 mm 4 m/s 766 mmHg 43%
    15:00 +19°C° 0 mm 4 m/s 766 mmHg 46%
    16:00 +19°C° 0 mm 4 m/s 766 mmHg 49%
    17:00 +15°C° 0 mm 4 m/s 767 mmHg 60%
    18:00 +13°C° 0 mm 3 m/s 767 mmHg 72%
    19:00 +11°C° 0 mm 3 m/s 768 mmHg 83%
    20:00 +10°C° 0 mm 3 m/s 768 mmHg 85%
    21:00 +10°C° 0 mm 2 m/s 769 mmHg 86%
    22:00 +10°C° 0 mm 2 m/s 769 mmHg 88%
    23:00 +9°C° 0 mm 2 m/s 769 mmHg 89%

    27 Août, Dimanche

    Heure Température Précipitation Vent Pression Humidité
    00:00 +9°C° 0 mm 3 m/s 769 mmHg 90%
    01:00 +9°C° 0 mm 3 m/s 769 mmHg 91%
    02:00 +8°C° 0 mm 3 m/s 768 mmHg 92%
    03:00 +8°C° 0 mm 3 m/s 768 mmHg 93%
    04:00 +8°C° 0 mm 3 m/s 768 mmHg 93%
    05:00 +8°C° 0 mm 3 m/s 769 mmHg 92%
    06:00 +8°C° 0 mm 3 m/s 769 mmHg 91%
    07:00 +8°C° 0 mm 3 m/s 769 mmHg 90%
    08:00 +11°C° 0,1 mm 4 m/s 769 mmHg 81%
    09:00 +13°C° 0,1 mm 4 m/s 769 mmHg 72%
    10:00 +17°C° 0,1 mm 4 m/s 769 mmHg 63%
    11:00 +16°C° 0,3 mm 5 m/s 768 mmHg 64%
    12:00 +17°C° 0,3 mm 5 m/s 768 mmHg 64%
    13:00 +17°C° 0,3 mm 5 m/s 767 mmHg 64%
    14:00 +17°C° 0,3 mm 5 m/s 767 mmHg 69%
    15:00 +16°C° 0,3 mm 5 m/s 767 mmHg 74%
    16:00 +15°C° 0,3 mm 5 m/s 767 mmHg 79%
    17:00 +14°C° 0,4 mm 4 m/s 767 mmHg 85%
    18:00 +12°C° 0,4 mm 3 m/s 768 mmHg 90%
    19:00 +11°C° 0,4 mm 3 m/s 768 mmHg 96%
    20:00 +11°C° 0,6 mm 3 m/s 768 mmHg 96%
    21:00 +11°C° 0,6 mm 3 m/s 768 mmHg 96%
    22:00 +10°C° 0,6 mm 3 m/s 768 mmHg 97%
    23:00 +10°C° 0,5 mm 2 m/s 768 mmHg 97%
    Voir plus